User: anonymous   Login
Location: Mount Wilson Observatory
(34.2257°N, 118.0571°W)
Time: 00:07:19
(UTC-07:00)
Language:

ATLAS 3B CENTAUR R/B - Orbit

View from above orbital plane
View from above orbital plane
View from above satellite
View from above satellite

Ground track
Ground track

The orbit data is extracted from the following two-line orbital elements,

1 28118U 03057B   15088.66215378  .00123365  00000-0  23272-2 0  9993
2 28118 028.1498 267.9799 3673277 328.1991 055.4670 08.14472811218229
Epoch (UTC): 29 March 2015 15:53:30
Eccentricity: 0.3673277
inclination: 28.1498°
perigee height: 223 km
apogee height: 7889 km
right ascension of ascending node: 267.9799°
argument of perigee: 328.1991°
revolutions per day: 8.14472811
mean anomaly at epoch: 55.4670°
orbit number at epoch: 21822

The dashed part of the orbit path shows where the satellite is in the earth's shadow,  

DLR